Regional Weather Roundup
Issued by NWS Columbia, SC

Home | Current Version | Previous Version | Text Only | Print | Product List | Glossary On
Versions: 1 2 3 4 5 6 7 8 9 10 11 12 13 14 15 16 17 18 19 20 21 22 23 24 25 26 27 28 29 30 31 32 33 34 35 36 37 38 39 40 41 42 43 44 45 46 47 48 49 50
000
ASUS42 KCAE 231110
RWRCAE
REGIONAL WEATHER ROUNDUP
NATIONAL WEATHER SERVICE COLUMBIA SC
600 AM EST MON JAN 23 2017

NOTE: "FAIR" INDICATES FEW OR NO CLOUDS BELOW 12,000 FEET WITH NO
SIGNIFICANT WEATHER AND/OR OBSTRUCTIONS TO VISIBILITY.

NOT ALL STATIONS ARE QUALITY CONTROLLED BY THE NATIONAL
WEATHER SERVICE. USE DATA WITH CAUTION...ESPECIALLY
DEWPOINT OBSERVATIONS.

SCZ001>056-GAZ040-063>065-077-231200-
...UPSTATE SOUTH CAROLINA...

CITY           SKY/WX    TMP DP  RH WIND       PRES   REMARKS
ANDERSON       PTCLDY    48  46  93 S6        29.21S
LIBERTY        CLOUDY    46  45  93 SW3       29.20R
SPARTANBURG    CLEAR     43  41  93 W3        29.20S
CLEMSON        CLEAR     49  44  83 SW3       29.21S
GREENVILLE     CLOUDY    49  44  83 W6        29.21R
GREENWOOD      CLOUDY    48  46  93 CALM      29.24R
GREER          MOCLDY    46  44  93 SW3       29.19R
ROCK HILL      PTCLDY    48  46  93 S7        29.22R
CHESTER        SUNNY     46  46 100 CALM      29.23S
LAURENS        CLOUDY    48  46  93 SW5       29.22S


...CENTRAL SOUTH CAROLINA...

CITY           SKY/WX    TMP DP  RH WIND       PRES   REMARKS
COLUMBIA APT   MOCLDY    50  47  89 E3        29.23S
COLUMBIA OWENS CLEAR     48  46  93 CALM      29.25S
MCENTIRE ANGB  CLEAR     47  47  99 E6        29.25S
ORANGEBURG     CLEAR     50  48  93 S9        29.25F
SUMTER SHAW    CLEAR     47  45  93 CALM      29.24S
NEWBERRY       CLOUDY    46  46 100 CALM      29.25F
AIKEN          FAIR      48  45  87 SW10      29.26R
BARNWELL       FAIR      50  50 100 S3        29.25S
MANNING        FAIR      46  43  87 SE3       29.28S
CAMDEN         FAIR      48  46  93 CALM      29.26S
LANCASTER      SUNNY     48  48 100 SW7       29.24R
WINNSBORO      SUNNY     46  46 100 CALM      29.24R


...EASTERN AND COASTAL SOUTH CAROLINA...

CITY           SKY/WX    TMP DP  RH WIND       PRES   REMARKS
MYRTLE BEACH   CLEAR     54  46  76 SW8       29.32S
N MYRTLE BCH   CLEAR     52  48  86 SW6       29.30R
CONWAY         FAIR      48  46  93 S3        29.30S FOG
MARION         FAIR      50  46  87 S7        29.28S
HARTSVILLE     FAIR      46  46 100 SW3       29.25S
FLORENCE       CLEAR     51  49  92 S7        29.28R
CHARLESTON APT PTCLDY    53  49  86 S12       29.29F
MOUNT PLEASANT FAIR      52  50  93 S5        29.31S
WALTERBORO     SUNNY     50  48  93 SW7       29.29S
BEAUFORT       CLEAR     54  49  83 SW12      29.29S


...EASTERN GEORGIA...

CITY           SKY/WX    TMP DP  RH WIND       PRES   REMARKS
AUGUSTA BUSH F MOCLDY    53  47  79 SW7       29.24S
AUGUSTA DANIEL CLOUDY    52  45  77 SW6       29.23F
THOMSON        CLOUDY    51  50  96 CALM      29.27S
WASHINGTON     DRIZZLE   50  50 100 SW5       29.22S
CLAXTON        FAIR     N/A N/A N/A S3        29.29S
SYLVANIA       PTSUNNY  N/A N/A N/A SW6       29.28S
STATESBORO     CLOUDY    55  49  83 SW6       29.28S
SAVANNAH       PTCLDY    52  47  83 S8        29.31S


...SOUTHERN NORTH CAROLINA...

CITY           SKY/WX    TMP DP  RH WIND       PRES   REMARKS
CHARLOTTE      PTCLDY    49  46  90 SW10      29.21S
MONROE         CLOUDY    50  45  83 SW13      29.22R
WADESBORO      CLOUDY    51  47  86 S3        29.24S
ROCKINGHAM     SUNNY     51  48  92 SW8       29.25R
RUTHERFORDTON  CLOUDY    49  49 100 S3        29.19R
ASHEVILLE      CLOUDY    47  44  90 CALM      29.18S

$$



USA.gov is the U.S. government's official web portal to all federal, state and local government web resources and services.